Location: Altleiningen
(49.5078°N, 8.0741°E)
Time: 03:56:09
(UTC+00:00)

Meteor 2-4 Rocket - Pass Details

Date: 03 March 2021
Orbit: 799 x 908 km, 81.2° (Epoch: 11 April)

Event Time Altitude Azimuth Distance (km) Brightness Sun altitude
Rises 18:45:00 0° 347° (NNW) 3,484 7.2 -15.6°
Reaches altitude 10° 18:47:26 10° 346° (NNW) 2,556 6.5 -15.9°
Maximum altitude 18:53:16 80° 261° (W) 917 3.9 -16.9°
Drops below altitude 10° 18:59:11 10° 175° (S) 2,582 6.1 -17.8°
Sets 19:01:39 0° 174° (S) 3,523 6.8 -18.2°
